Location: Finney State Fishing Lake and Wildlife Area
(38.1834°N, 100.3310°W)
Time: 08:46:01
(UTC+00:00)

Envisat - Pass Details

Date: 17 October 2021
Orbit: 764 x 766 km, 98.2° (Epoch: 28 November)

Event Time Altitude Azimuth Distance (km) Brightness Sun altitude
Rises 12:00:30 0° 9° (N) 3,239 6.3 -10.9°
Reaches altitude 10° 12:02:49 10° 7° (N) 2,309 5.5 -10.5°
Maximum altitude 12:07:52 69° 286° (WNW) 818 3.0 -9.5°
Drops below altitude 10° 12:12:53 10° 203° (SSW) 2,292 5.3 -8.5°
Sets 12:15:11 0° 201° (SSW) 3,214 6.1 -8.1°
